Temp
5 5 5 5 4 4 3 3 3 3 3 3 3 3 3 2 2 2 2 2 2 2 3 3 3 2 2 2 2 1 1 1 1 2 2 1 1 1 2 2 1 1 1
5 4 4 4 4 3 3 3 3 3 3 2 2 2 2 2 2 2 2 2 2 2 2 2 2 1 1 1 1 1 1 1 -0 1 1 3 2 0 0 1 1 1 1
4 4 4 3 3 3 2 2 2 2 2 2 2 1 1 1 1 1 1 1 1 1 1 1 1 1 0 0 -0 -0 -1 -0 -0 -1 -2 0 2 3 0 -1 -1 -1 -1
4 4 3 3 3 2 2 2 2 1 1 1 1 0 0 0 0 0 0 0 0 0 0 -0 -1 -1 -1 -1 -1 -1 -1 -2 -2 -2 -2 -3 -3 -1 3 1 -1 -1 -2
4 3 2 2 2 2 2 1 1 1 1 0 0 -0 -0 -0 -0 -1 -1 -1 -1 -1 -1 -1 -2 -2 -2 -2 -1 -2 -2 -2 -3 -3 -3 -3 -3 -4 -3 -0 2 -1 -2
3 3 3 2 2 1 1 1 1 0 0 0 -0 -1 -1 -1 -1 -1 -1 -1 -2 -2 -2 -2 -2 -3 -3 -3 -3 -3 -3 -3 -3 -4 -4 -5 -4 -4 -3 -3 -3 1 1
3 2 2 1 1 1 1 1 0 0 0 -0 -1 -1 -1 -1 -2 -2 -2 -2 -3 -3 -3 -3 -3 -4 -4 -4 -4 -4 -4 -4 -4 -5 -5 -5 -5 -6 -5 -5 -4 -4 -1
3 2 2 1 1 1 1 0 0 -0 -0 -1 -1 -2 -2 -2 -2 -2 -2 -3 -3 -3 -3 -4 -4 -4 -4 -4 -5 -5 -5 -5 -5 -5 -6 -6 -6 -6 -6 -6 -6 -5 -5
2 2 1 1 1 0 0 -0 -1 -1 -1 -2 -2 -2 -3 -3 -3 -3 -4 -4 -4 -4 -4 -4 -5 -5 -5 -5 -5 -5 -5 -6 -6 -7 -7 -7 -7 -7 -7 -7 -7 -7 -6
2 2 1 0 0 -0 -1 -1 -1 -2 -2 -3 -3 -3 -3 -4 -4 -4 -4 -4 -4 -4 -4 -4 -5 -5 -6 -6 -7 -6 -6 -7 -7 -8 -8 -8 -8 -8 -8 -8 -8 -8 -7
1 1 0 0 -1 -1 -1 -2 -2 -3 -3 -3 -4 -4 -5 -5 -5 -5 -5 -5 -5 -5 -5 -6 -6 -6 -7 -7 -7 -8 -8 -7 -7 -8 -8 -8 -9 -9 -9 -9 -9 -8 -9
1 0 -0 -1 -1 -2 -2 -3 -3 -4 -4 -4 -5 -5 -5 -5 -6 -6 -6 -5 -6 -6 -6 -7 -7 -7 -8 -8 -9 -9 -10 -10 -10 -10 -10 -10 -11 -11 -10 -10 -10 -9 -9
0 -0 -1 -1 -2 -3 -3 -4 -4 -5 -5 -5 -6 -6 -6 -6 -5 -5 -6 -6 -7 -7 -8 -8 -8 -9 -10 -10 -11 -12 -12 -12 -12 -12 -12 -12 -13 -12 -11 -11 -11 -10 -10
-0 -1 -2 -2 -3 -4 -4 -4 -5 -6 -6 -6 -6 -6 -6 -6 -6 -7 -7 -8 -8 -9 -9 -10 -10 -11 -12 -12 -13 -13 -13 -14 -14 -14 -14 -14 -13 -13 -13 -13 -13 -13 -12
-1 -2 -3 -3 -4 -4 -5 -6 -6 -6 -6 -6 -6 -7 -7 -7 -7 -8 -8 -9 -9 -10 -11 -12 -12 -12 -13 -13 -14 -14 -14 -14 -14 -14 -14 -14 -14 -14 -14 -14 -14 -14 -13
-3 -3 -4 -4 -5 -6 -6 -6 -6 -7 -7 -7 -7 -7 -7 -8 -8 -9 -10 -11 -11 -12 -12 -12 -12 -12 -13 -13 -14 -14 -15 -15 -15 -15 -15 -15 -14 -14 -14 -14 -14 -14 -14
-4 -4 -5 -6 -6 -7 -7 -7 -7 -7 -7 -7 -7 -8 -9 -9 -10 -11 -11 -11 -11 -12 -11 -11 -12 -12 -12 -13 -14 -15 -15 -15 -15 -15 -15 -15 -15 -15 -15 -14 -14 -14 -14
-5 -6 -6 -7 -7 -7 -7 -7 -7 -7 -8 -8 -9 -9 -10 -11 -11 -11 -11 -11 -12 -12 -11 -11 -12 -12 -12 -13 -14 -15 -15 -15 -15 -15 -15 -15 -15 -15 -15 -15 -15 -14 -14
-6 -7 -7 -7 -7 -7 -7 -8 -8 -8 -8 -9 -9 -10 -11 -11 -11 -11 -11 -12 -12 -11 -12 -12 -12 -12 -12 -13 -14 -15 -16 -16 -15 -15 -15 -15 -15 -15 -15 -15 -15 -15 -14
-6 -7 -7 -7 -7 -8 -8 -8 -8 -9 -9 -10 -10 -11 -11 -11 -11 -12 -12 -12 -12 -12 -12 -12 -12 -13 -14 -14 -15 -15 -16 -16 -16 -15 -15 -15 -15 -15 -15 -15 -15 -15 -15
-7 -7 -7 -8 -8 -9 -9 -9 -9 -10 -10 -11 -11 -11 -11 -12 -12 -12 -12 -12 -12 -12 -13 -13 -13 -14 -14 -14 -15 -16 -17 -17 -16 -16 -16 -16 -16 -16 -16 -16 -16 -15 -15
-8 -8 -9 -9 -9 -9 -9 -10 -10 -11 -11 -11 -11 -11 -11 -12 -12 -12 -12 -13 -13 -13 -13 -13 -13 -14 -14 -15 -16 -16 -17 -17 -17 -17 -17 -17 -17 -16 -16 -16 -16 -16 -15
-9 -9 -9 -9 -10 -10 -11 -11 -11 -12 -11 -11 -11 -12 -12 -12 -12 -12 -12 -13 -13 -14 -14 -14 -14 -14 -15 -15 -16 -16 -17 -17 -17 -17 -17 -17 -17 -16 -16 -16 -16 -16 -16
-10 -10 -10 -10 -10 -11 -12 -12 -12 -12 -12 -12 -12 -12 -12 -12 -12 -13 -13 -13 -14 -14 -14 -15 -15 -15 -15 -16 -16 -17 -17 -17 -17 -17 -17 -17 -17 -17 -17 -17 -17 -17 -17
-10 -10 -10 -11 -12 -12 -12 -12 -12 -12 -12 -12 -12 -12 -12 -12 -12 -13 -13 -13 -14 -15 -15 -16 -16 -17 -17 -17 -17 -17 -17 -17 -17 -17 -17 -17 -17 -17 -17 -17 -17 -17 -17
-11 -11 -12 -12 -12 -12 -12 -12 -13 -13 -12 -12 -12 -12 -13 -13 -13 -13 -12 -13 -14 -15 -15 -16 -16 -16 -17 -17 -17 -17 -17 -17 -17 -17 -17 -17 -17 -17 -17 -17 -17 -17 -17
Height
3136 3137 3137 3138 3139 3141 3142 3143 3144 3145 3145 3144 3144 3144 3143 3142 3141 3140 3138 3137 3134 3131 3128 3125 3122 3119 3117 3114 3112 3110 3108 3104 3101 3101 3101 3097 3094 3091 3089 3087 3084 3084 3083
3132 3133 3133 3134 3135 3137 3138 3140 3141 3142 3142 3142 3142 3141 3140 3139 3138 3136 3135 3132 3130 3127 3123 3120 3117 3115 3112 3109 3107 3105 3104 3102 3096 3094 3094 3092 3093 3089 3085 3084 3082 3081 3079
3128 3129 3129 3130 3131 3133 3135 3136 3138 3138 3139 3139 3138 3137 3136 3135 3134 3131 3129 3127 3125 3122 3119 3115 3113 3110 3108 3105 3103 3100 3097 3096 3096 3090 3088 3086 3086 3083 3084 3082 3078 3076 3076
3123 3124 3125 3127 3128 3130 3132 3133 3134 3135 3135 3134 3134 3133 3132 3131 3129 3128 3125 3122 3119 3116 3114 3111 3108 3105 3102 3099 3097 3094 3092 3089 3088 3088 3085 3081 3077 3075 3076 3078 3076 3073 3071
3119 3120 3121 3123 3125 3127 3128 3130 3130 3131 3130 3130 3129 3128 3127 3126 3123 3122 3119 3116 3113 3110 3107 3104 3101 3098 3095 3093 3090 3088 3085 3083 3081 3079 3078 3077 3075 3072 3064 3065 3067 3068 3068
3114 3116 3118 3120 3122 3124 3125 3126 3126 3126 3126 3125 3124 3123 3121 3119 3117 3115 3113 3110 3107 3104 3100 3097 3094 3091 3089 3086 3083 3081 3078 3075 3073 3071 3069 3066 3065 3065 3059 3053 3057 3054 3058
3111 3113 3115 3117 3118 3120 3121 3121 3121 3121 3121 3120 3119 3118 3116 3114 3112 3109 3106 3103 3100 3098 3094 3090 3087 3084 3081 3078 3074 3072 3069 3066 3064 3061 3060 3057 3056 3053 3051 3047 3042 3043 3047
3107 3109 3110 3112 3114 3115 3116 3116 3116 3116 3116 3115 3114 3112 3109 3107 3104 3101 3098 3094 3091 3088 3085 3082 3078 3075 3071 3068 3064 3061 3058 3055 3053 3051 3048 3046 3046 3043 3040 3037 3034 3029 3030
3104 3105 3107 3108 3109 3111 3111 3111 3112 3111 3110 3109 3106 3104 3101 3098 3095 3092 3088 3085 3082 3078 3074 3071 3067 3063 3059 3054 3051 3048 3046 3042 3039 3038 3036 3034 3032 3031 3029 3027 3024 3020 3012
3100 3101 3103 3105 3105 3106 3106 3106 3106 3105 3103 3101 3099 3096 3093 3089 3085 3082 3079 3076 3072 3068 3063 3059 3055 3050 3046 3041 3035 3032 3031 3026 3024 3022 3021 3020 3017 3016 3015 3014 3012 3009 3005
3097 3098 3100 3100 3101 3101 3101 3101 3100 3098 3096 3094 3091 3087 3084 3080 3076 3071 3066 3061 3056 3052 3048 3043 3039 3035 3031 3027 3022 3016 3013 3011 3008 3006 3003 3002 3001 3000 2999 2999 2997 2995 2993
3093 3095 3096 3096 3097 3096 3096 3095 3093 3090 3087 3084 3081 3077 3074 3069 3064 3059 3054 3050 3045 3040 3035 3029 3024 3020 3016 3012 3007 3002 2998 2994 2990 2989 2986 2985 2984 2983 2983 2983 2982 2981 2980
3089 3090 3091 3091 3090 3089 3088 3087 3084 3081 3078 3075 3072 3068 3064 3059 3054 3048 3043 3038 3031 3026 3021 3015 3009 3004 2999 2995 2992 2988 2985 2981 2978 2975 2972 2969 2968 2966 2966 2965 2964 2963 2962
3083 3084 3084 3083 3083 3082 3081 3080 3077 3074 3071 3067 3063 3059 3054 3048 3042 3036 3031 3025 3019 3013 3006 2999 2994 2989 2984 2980 2977 2973 2970 2968 2965 2962 2960 2959 2956 2954 2952 2950 2948 2947 2946
3077 3077 3077 3076 3076 3075 3074 3072 3070 3066 3061 3057 3053 3048 3041 3036 3030 3024 3017 3010 3004 2998 2992 2987 2982 2977 2972 2968 2964 2960 2957 2955 2953 2951 2948 2947 2945 2943 2941 2938 2937 2936 2934
3068 3069 3069 3069 3069 3067 3066 3064 3060 3056 3052 3047 3041 3034 3028 3022 3016 3009 3003 2997 2992 2986 2980 2976 2971 2966 2962 2957 2953 2949 2944 2942 2941 2938 2936 2935 2935 2933 2931 2929 2926 2925 2924
3062 3063 3063 3062 3061 3059 3057 3054 3049 3044 3038 3034 3028 3020 3013 3007 3002 2996 2990 2985 2980 2974 2969 2963 2958 2952 2948 2944 2940 2936 2933 2929 2927 2925 2923 2922 2922 2921 2920 2919 2916 2914 2914
3057 3057 3056 3054 3053 3050 3046 3041 3036 3031 3026 3020 3013 3007 3002 2997 2991 2985 2980 2973 2966 2960 2954 2949 2943 2936 2932 2928 2924 2922 2918 2915 2914 2913 2911 2909 2908 2909 2908 2906 2905 2905 2905
3050 3050 3048 3045 3043 3039 3035 3029 3025 3020 3015 3009 3004 2998 2993 2986 2980 2974 2967 2961 2953 2949 2942 2936 2929 2922 2917 2914 2909 2907 2904 2901 2900 2900 2899 2897 2896 2897 2896 2893 2893 2895 2896
3043 3041 3039 3037 3033 3030 3024 3020 3015 3010 3005 2999 2994 2989 2983 2975 2969 2963 2957 2950 2943 2935 2928 2922 2916 2909 2901 2898 2895 2892 2890 2887 2887 2887 2887 2886 2885 2885 2885 2882 2882 2882 2886
3036 3034 3030 3027 3024 3021 3016 3011 3006 3001 2995 2989 2983 2978 2973 2965 2958 2951 2945 2936 2929 2922 2916 2908 2901 2895 2890 2885 2882 2880 2878 2875 2875 2873 2873 2874 2875 2874 2872 2872 2870 2871 2875
3029 3026 3022 3020 3017 3013 3006 3001 2996 2989 2983 2977 2972 2967 2961 2953 2946 2938 2932 2925 2917 2909 2901 2894 2888 2883 2879 2875 2871 2869 2867 2865 2863 2861 2860 2861 2863 2863 2861 2860 2861 2862 2863
3021 3018 3014 3011 3008 3003 2997 2990 2985 2978 2973 2967 2961 2955 2948 2941 2935 2927 2920 2912 2905 2898 2890 2883 2877 2871 2868 2864 2860 2858 2856 2854 2852 2850 2848 2848 2850 2851 2850 2850 2851 2852 2853
3012 3008 3005 3001 2997 2993 2987 2980 2974 2968 2962 2957 2951 2945 2937 2930 2924 2917 2910 2902 2895 2889 2881 2874 2867 2861 2857 2853 2849 2846 2843 2842 2841 2840 2838 2837 2838 2839 2839 2839 2840 2841 2842
3003 2999 2995 2990 2986 2981 2975 2970 2964 2959 2952 2946 2939 2934 2928 2920 2914 2907 2901 2895 2889 2881 2872 2865 2858 2851 2846 2843 2839 2836 2834 2831 2830 2828 2827 2827 2827 2828 2829 2830 2831 2832 2832
2993 2989 2985 2980 2975 2970 2964 2960 2954 2948 2942 2936 2931 2923 2917 2910 2905 2898 2892 2889 2882 2874 2866 2859 2851 2844 2838 2834 2831 2829 2825 2822 2820 2818 2816 2816 2816 2817 2819 2820 2821 2821 2822
Wind_Speed
16 17 18 16 15 15 15 14 12 11 11 11 11 11 12 15 17 19 22 24 27 31 31 29 27 26 25 25 24 23 22 24 25 21 21 25 24 26 27 27 26 20 18
17 18 16 15 17 17 16 15 14 13 13 13 14 15 17 19 21 23 25 28 31 36 35 30 27 25 25 26 27 28 26 25 29 28 24 21 20 18 23 26 26 26 23
19 17 15 16 18 17 17 16 15 15 15 15 17 19 21 23 25 27 30 33 36 38 36 30 27 27 27 28 29 30 31 30 27 30 31 29 25 26 19 18 25 26 24
19 16 16 17 18 18 18 17 16 16 16 18 20 22 24 26 28 30 33 35 38 39 35 29 28 29 31 32 33 34 35 35 33 29 30 32 35 33 29 24 18 22 25
18 17 17 18 19 19 18 18 17 18 19 21 23 25 27 29 31 33 35 38 40 37 33 31 32 34 36 38 39 39 39 39 39 38 36 34 34 35 41 35 31 27 24
18 18 19 19 19 18 19 19 19 21 22 25 26 28 29 31 33 36 39 40 37 35 35 36 37 38 39 40 41 41 42 42 43 42 42 42 41 39 43 46 39 38 34
17 17 17 18 18 18 19 21 22 23 25 27 29 30 32 34 37 41 40 39 36 36 38 39 39 40 41 43 44 44 44 45 45 45 44 44 43 44 43 46 49 46 42
16 17 18 18 19 21 22 22 23 25 26 28 29 32 34 38 42 43 40 39 40 40 40 42 43 45 47 48 49 49 49 49 49 48 48 47 45 45 46 47 49 52 49
16 16 17 18 18 19 20 20 22 24 26 28 31 35 39 43 43 40 40 42 43 46 47 47 49 51 53 54 55 55 55 55 54 52 51 50 49 48 48 48 48 50 57
20 19 17 16 16 17 18 20 22 25 29 32 35 41 44 42 41 42 44 47 50 51 52 53 53 54 54 55 57 58 56 59 58 57 56 54 53 52 50 52 52 49 52
20 19 18 17 16 17 18 23 26 29 33 38 42 43 40 41 44 49 52 55 56 56 56 55 56 55 55 55 57 59 60 59 58 57 56 57 57 57 56 54 54 55 54
20 20 18 17 17 21 24 25 29 35 39 41 42 41 43 47 50 53 55 57 58 57 57 57 58 57 56 54 54 56 57 58 58 57 57 55 55 55 55 55 58 57 56
20 21 20 21 24 25 26 31 36 39 41 42 42 44 47 52 55 57 57 57 58 58 58 57 57 55 54 52 50 49 50 51 53 50 50 49 46 45 47 51 51 53 54
23 24 24 25 27 28 32 37 38 40 40 43 45 48 51 54 55 56 56 57 57 56 56 54 53 51 49 47 46 46 45 44 44 42 44 45 45 44 43 43 44 43 45
25 26 28 29 30 33 38 38 38 40 44 46 50 52 54 55 55 56 56 56 55 53 51 49 46 46 45 44 43 45 45 44 43 42 41 43 44 42 42 41 41 39 39
27 29 30 30 35 36 36 36 39 42 47 51 53 54 55 54 54 53 53 52 51 50 50 48 48 48 47 45 44 43 45 45 44 44 43 41 40 41 39 39 39 39 37
28 29 31 34 33 33 36 39 44 49 51 51 53 53 53 53 51 50 51 51 51 52 51 50 51 51 49 47 45 43 43 45 44 45 48 47 41 38 40 37 38 38 38
27 29 29 29 32 34 40 47 48 49 50 51 52 51 50 49 49 50 51 51 53 52 52 52 53 54 53 50 46 44 43 44 44 43 45 47 46 44 43 41 38 37 35
25 25 28 31 36 42 45 46 46 48 50 51 51 49 47 48 50 51 52 53 54 52 53 54 56 56 55 51 46 41 41 44 43 42 41 41 41 39 39 40 41 36 34
25 28 32 38 42 42 44 46 48 49 49 49 48 46 47 50 51 52 53 52 52 53 54 55 55 52 50 48 43 37 38 41 42 41 40 40 38 37 36 38 39 41 34
27 33 39 39 40 41 43 46 48 47 47 46 46 46 47 50 50 51 52 52 51 52 53 52 49 46 43 42 39 35 35 38 40 41 41 40 36 35 35 35 38 38 37
33 34 36 37 38 39 43 45 46 46 45 45 45 46 48 50 51 52 51 50 51 51 50 48 47 44 41 38 34 33 33 35 38 41 41 40 36 34 34 35 35 35 36
30 32 35 37 38 40 41 44 44 44 44 45 46 47 48 49 49 49 49 50 48 46 46 45 45 44 40 38 35 32 32 34 36 39 41 41 39 35 35 34 35 33 34
30 33 36 38 39 39 41 43 43 43 45 46 46 48 48 47 47 47 45 45 43 43 44 44 44 42 40 37 36 36 35 33 33 35 39 40 38 36 34 32 31 31 30
32 35 37 39 39 41 42 41 42 43 44 46 46 46 46 45 46 44 40 41 42 43 45 45 45 44 43 38 36 34 33 34 35 34 33 31 32 34 33 31 31 31 31
35 36 37 39 41 42 40 40 40 43 45 46 45 43 43 43 41 40 40 39 41 40 38 37 37 40 39 38 34 33 33 32 31 33 34 34 35 35 33 32 30 31 33
Wind_Direction
249 258 267 260 237 226 227 235 245 258 268 270 269 275 281 290 303 312 319 323 327 331 327 319 312 308 306 305 304 302 301 299 299 297 292 300 303 303 305 307 307 306 310
255 257 257 242 224 223 228 236 246 257 262 265 266 273 284 296 304 309 313 318 325 329 329 320 312 308 307 307 308 308 306 305 306 305 301 286 284 298 294 298 300 301 301
248 253 243 228 223 225 230 238 247 255 262 268 273 279 288 295 300 307 314 318 322 326 325 316 311 309 308 307 306 305 305 304 301 304 307 302 288 276 270 284 292 292 295
250 247 236 221 222 227 234 242 249 257 264 269 274 282 289 296 302 305 310 316 320 321 318 311 308 307 306 305 304 303 301 300 299 296 296 298 300 296 279 263 263 279 288
232 231 226 222 224 231 239 247 253 260 266 272 278 283 289 296 300 305 310 314 317 315 310 307 307 306 305 304 303 302 300 298 296 295 291 286 283 286 287 278 265 266 266
223 228 224 222 229 238 245 252 257 262 269 273 278 285 291 296 302 306 311 314 312 309 307 306 304 302 301 300 299 298 297 296 294 292 291 290 288 283 281 280 275 266 259
223 228 225 226 233 243 251 256 260 266 271 278 285 292 296 299 302 307 311 309 306 305 305 305 304 300 297 295 294 293 292 292 291 289 286 284 283 283 281 281 283 279 267
231 230 227 232 241 247 253 260 266 272 279 286 291 293 296 300 304 306 305 304 305 306 306 304 301 298 296 294 292 291 290 289 288 287 285 283 280 277 276 277 277 278 275
227 228 229 237 247 254 260 266 273 279 283 286 288 293 298 302 303 302 303 305 306 306 303 301 299 296 294 292 290 288 288 286 285 283 282 280 278 274 271 270 272 276 279
229 233 239 251 258 258 264 271 276 280 284 289 294 299 302 302 302 302 302 303 302 301 300 299 296 294 293 291 289 287 285 282 282 281 279 276 274 272 270 269 267 267 272
233 237 247 254 254 260 268 274 279 287 292 296 299 301 300 300 302 304 306 307 307 305 302 300 298 297 294 292 290 289 288 286 284 282 280 276 273 271 269 268 269 268 265
239 246 249 251 258 269 271 278 287 294 296 298 299 299 302 305 306 307 305 304 303 303 303 302 299 297 295 292 288 288 288 289 288 287 285 284 281 278 275 273 269 268 269
252 253 253 260 270 273 278 287 293 294 294 296 298 300 303 304 305 304 304 303 303 303 301 300 299 298 296 294 291 288 288 288 291 292 291 290 290 287 283 281 276 272 268
254 256 259 267 271 275 284 289 287 288 291 294 296 300 304 305 304 303 303 302 302 304 304 303 302 301 299 297 295 293 292 291 290 289 288 287 287 288 287 283 282 278 272
254 256 261 264 268 277 282 283 288 291 294 297 301 306 306 305 304 304 305 306 307 306 305 303 302 301 300 297 294 292 292 290 292 288 287 286 285 282 284 283 281 280 277
253 256 259 265 275 279 283 287 291 295 298 301 306 307 305 306 307 308 308 307 306 305 303 302 300 298 296 294 291 287 286 287 287 286 285 284 284 281 282 281 280 279 276
253 255 263 273 278 283 289 295 297 300 305 308 308 308 310 310 310 309 307 307 306 304 304 304 302 300 297 292 287 285 282 281 281 284 283 282 282 284 279 281 277 273 273
256 265 271 276 283 292 298 301 304 307 309 310 310 310 309 309 308 306 307 308 307 307 306 305 304 302 301 297 291 284 280 277 279 282 281 281 281 279 281 276 278 275 272
265 271 280 291 298 303 304 305 308 309 309 308 307 308 308 307 306 309 310 309 307 305 304 304 303 302 300 298 294 285 277 276 278 280 282 282 282 282 280 273 273 274 271
280 289 293 297 302 305 307 308 308 307 307 307 307 307 309 309 309 308 308 307 305 304 304 305 305 304 302 299 295 286 276 275 276 278 279 280 284 284 278 273 269 270 264
285 291 296 301 304 306 306 305 304 307 306 307 307 308 308 307 308 308 310 309 308 307 307 307 306 305 303 300 295 288 279 277 279 278 278 280 282 283 280 272 270 268 269
292 297 299 300 304 305 303 304 307 308 308 307 308 309 310 310 311 311 312 311 310 310 311 310 309 308 306 303 294 286 280 276 277 277 278 279 280 280 279 272 267 267 265
296 299 301 304 307 306 307 307 308 307 307 309 311 312 312 312 313 313 314 313 314 314 314 313 311 309 308 304 299 290 283 276 272 272 275 277 278 278 280 276 270 266 263
304 305 307 307 307 308 309 309 309 309 310 311 312 313 313 314 314 315 315 316 319 318 313 311 310 310 310 309 307 300 294 288 282 279 274 273 274 274 277 276 270 265 262
309 309 309 308 310 311 311 310 310 309 310 312 314 314 314 314 316 317 318 319 320 317 314 312 308 306 305 307 306 307 303 295 290 289 285 275 270 270 271 272 269 266 265
312 310 309 310 312 311 310 310 311 312 313 314 315 315 315 317 317 317 318 319 320 319 314 308 305 303 300 298 295 295 296 294 287 281 277 272 272 271 271 269 268 265 264